Flag for Austria Weather past 2 weeks in Judenburg, Styria, Austria

21 °F

Partly sunny.

Feels Like: 21 °F
Forecast: 26 / 37 °F
Wind: 1 mph from North

Location: Zeltweg

Current Time: Nov 25, 2015 at 9:39:39 AM

Latest Report: Nov 25, 2015 at 8:50 AM

Visibility: 12 mi

Pressure: 29.89 "Hg (27.19 "Hg at 739m altitude)

Humidity: 86%

Dew point: 18 °F

Location of JudenburgLocation

Historic Weather in Judenburg — Graph


Judenburg temperature yesterday

Maximum temperature yesterday: 36 °F (at 3:20 PM)
Minimum temperature yesterday: 14 °F (at 6:50 AM)
Average temperature yesterday: 25 °F

Past Weeks' High & Low Weather Summary

High70 °F (Nov 18, 1:20 PM)100% (Nov 11, 4:50 AM)30.39 "Hg (Nov 11, 4:50 AM)
Low14 °F (Nov 24, 6:50 AM)18% (Nov 18, 1:20 PM)29.33 "Hg (Nov 21, 5:50 PM)
Average42 °F73%30.04 "Hg
* Reported Nov 10 8:20 AM — Nov 25 8:50 AM, Judenburg, Weather by CustomWeather, © 2015

Note: Actual official high and low records may vary slightly from our data, if they occured in-between our weather recording intervals... More about our weather records


Judenburg weather history for previous 24 hours

Time TempWeatherWind HumidityBarometerVisibility
8:50 AM
Wed, Nov 25
21 °FPartly sunny.1 mph86%29.89 "Hg12 mi
7:50 AM18 °FScattered clouds.1 mph86%29.92 "Hg12 mi
7:20 AM18 °FScattered clouds.1 mph86%29.92 "Hg12 mi
6:50 AM16 °FPassing clouds.1 mph86%29.92 "Hg12 mi
6:20 AM16 °FPassing clouds.1 mph86%29.92 "Hg9 mi
5:50 AM14 °FPassing clouds.1 mph92%29.95 "Hg9 mi
4:50 AM16 °FPassing clouds.No wind93%29.95 "Hg9 mi
3:50 AM16 °FPassing clouds.1 mph93%29.98 "Hg9 mi
9:50 PM
Tue, Nov 24
19 °FPassing clouds.1 mph100%30.09 "Hg9 mi
8:50 PM19 °FPassing clouds.1 mph93%30.09 "Hg9 mi
8:20 PM25 °FPassing clouds.2 mph86%30.09 "Hg9 mi
7:50 PM23 °FPassing clouds.1 mph86%30.09 "Hg9 mi
7:20 PM25 °FPassing clouds.2 mph86%30.12 "Hg9 mi
6:50 PM27 °FPassing clouds.1 mph80%30.12 "Hg9 mi
6:20 PM27 °FPassing clouds.1 mph80%30.12 "Hg9 mi
5:50 PM28 °FPassing clouds.2 mph80%30.12 "Hg9 mi
5:20 PM27 °FPassing clouds.6 mph86%30.12 "Hg9 mi
4:50 PM28 °FPassing clouds.3 mph74%30.12 "Hg19 mi
4:20 PM30 °FPassing clouds.7 mph75%30.12 "Hg25 mi
3:50 PM34 °FPassing clouds.5 mph60%30.12 "Hg25 mi
3:20 PM36 °FPassing clouds.3 mph60%30.12 "Hg25 mi
2:50 PM34 °FPassing clouds.3 mph65%30.15 "Hg25 mi
2:20 PM34 °FPassing clouds.2 mph60%30.15 "Hg25 mi
1:50 PM32 °FPassing clouds.1 mph64%30.15 "Hg25 mi
1:20 PM30 °FScattered clouds.3 mph69%30.18 "Hg25 mi
12:50 PM28 °FScattered clouds.2 mph74%30.18 "Hg25 mi
12:20 PM28 °FScattered clouds.1 mph69%30.21 "Hg25 mi
11:50 AM27 °FPartly sunny.1 mph74%30.24 "Hg25 mi
11:20 AM27 °FPartly sunny.1 mph74%30.24 "Hg19 mi
10:50 AM25 °FPartly sunny.1 mph74%30.24 "Hg19 mi
10:20 AM23 °FPartly sunny.1 mph80%30.27 "Hg19 mi
9:50 AM23 °FScattered clouds.2 mph80%30.27 "Hg19 mi
9:20 AM21 °FScattered clouds.2 mph80%30.27 "Hg19 mi
Weather by CustomWeather, © 2015

See weather overviewHow to use our weather pages